Weather History for Mannheim, Germany

Change the Weather History Date:

Tuesday, February 5, 2013

  Actual Average (EDDF) Record (EDDF)
Temperature  
Mean Temperature 39 °F -  
Max Temperature 45 °F 42 °F 59 °F (2004)
Min Temperature 33 °F 31 °F 5 °F (2012)
Degree Days  
Heating Degree Days 26    
Moisture  
Dew Point 34 °F    
Average Humidity 75    
Maximum Humidity 100    
Minimum Humidity 51    
Precipitation  
Precipitation 0.16 in - - ()
Sea Level Pressure  
Sea Level Pressure 29.65 in    
Wind  
Wind Speed 10 mph ()    
Max Wind Speed 22 mph    
Max Gust Speed 33 mph    
Visibility 8.3 miles    
Events Rain , Snow , Thunderstorm    
Averages and records for this station are not official NWS values.
T = Trace of Precipitation, MM = Missing Value Source: Averaged Metar Reports

Daily Weather History Graph

Daily Weather History Graph

Search for Another Location

Airport:

Trip Planner

Search our weather history database for the weather conditions in past years. The results will help you decide how hot, cold, wet, or windy it might be!

Date:

Astronomy

Feb. 05, 2013 Rise Set
Actual Time 7:51 AM CET 5:28 PM CET
Civil Twilight 7:17 AM CET 6:02 PM CET
Nautical Twilight 6:39 AM CET 6:40 PM CET
Astronomical Twilight 6:02 AM CET 7:17 PM CET
Moon 3:25 AM CET (2/5) 12:19 PM CET (2/5)
Length of Visible Light 10h 44m
Length of Day
9h 36m
Waning Crescent, 29% of the Moon is Illuminated
Feb 5
Waning Crescent
Feb 10
New
Feb 17
First Quarter
Feb 25
Full
Mar 4
Last Quarter

Hourly Weather History & Observations

Time (CET) Temp. Windchill Dew Point Humidity Pressure Visibility Wind Dir Wind Speed Gust Speed Precip Events Conditions
12:00 AM 44 °F - 38 °F 73% 29.92 in 22 mi WNW 4.5 mph - - Rain Rain
1:00 AM 46 °F - 36 °F 59% 29.90 in 19 mi SW 15.7 mph - - Rain Rain
2:00 AM 46 °F - 34 °F 51% 29.89 in 19 mi SW 13.4 mph - -   Clear
3:00 AM 45 °F - 33 °F 53% 29.87 in 22 mi SW 11.2 mph - - Rain Drizzle
4:00 AM 44 °F - 34 °F 59% 29.84 in 19 mi SW 8.9 mph - -   Clear
5:00 AM 44 °F - 34 °F 59% 29.81 in 19 mi SW 11.2 mph - -   Overcast
5:20 AM 44.6 °F 38.8 °F 33.8 °F 66% 29.77 in 6.2 mi SW 11.5 mph - N/A   Mostly Cloudy
5:50 AM 44.6 °F 38.8 °F 33.8 °F 66% 29.77 in 6.2 mi SW 11.5 mph - N/A   Mostly Cloudy
6:00 AM 44 °F - 35 °F 60% 29.77 in 17 mi SW 11.2 mph - - Rain Rain
6:20 AM 44.6 °F 38.8 °F 33.8 °F 66% 29.74 in 6.2 mi SW 11.5 mph - N/A   Mostly Cloudy
6:50 AM 42.8 °F 37.5 °F 35.6 °F 76% 29.71 in 6.2 mi SW 9.2 mph - N/A   Mostly Cloudy
7:00 AM 43 °F - 36 °F 67% 29.73 in 18 mi SSW 11.2 mph - -   Clear
7:20 AM 44.6 °F 38.8 °F 33.8 °F 66% 29.71 in 6.2 mi WSW 11.5 mph - N/A   Mostly Cloudy
7:50 AM 42.8 °F 36.6 °F 35.6 °F 76% 29.68 in 6.2 mi SW 11.5 mph - N/A   Mostly Cloudy
8:00 AM 43 °F - 35 °F 66% 29.71 in 22 mi SSW 13.4 mph - - Rain Rain
8:20 AM 42.8 °F 37.0 °F 35.6 °F 76% 29.68 in 6.2 mi SW 10.4 mph - N/A   Mostly Cloudy
8:50 AM 44.6 °F 38.4 °F 35.6 °F 71% 29.68 in 6.2 mi SSW 12.7 mph - N/A   Mostly Cloudy
9:00 AM 43 °F - 36 °F 67% 29.68 in 22 mi SSW 15.7 mph - -  
9:20 AM 44.6 °F 37.8 °F 35.6 °F 71% 29.65 in 6.2 mi SSW 15.0 mph 26.5 mph N/A   Mostly Cloudy
9:50 AM 44.6 °F 37.4 °F 35.6 °F 71% 29.65 in 6.2 mi SSW 16.1 mph - N/A   Mostly Cloudy
10:00 AM 44 °F - 37 °F 68% 29.66 in 28 mi SSW 20.1 mph - -   Clear
10:20 AM 44.6 °F 36.6 °F 35.6 °F 71% 29.62 in 6.2 mi SSW 19.6 mph - N/A   Mostly Cloudy
10:50 AM 44.6 °F 37.8 °F 35.6 °F 71% 29.62 in 6.2 mi SSW 15.0 mph 28.8 mph N/A Thunderstorm Mostly Cloudy
11:00 AM 44 °F - 37 °F 67% 29.63 in 31 mi South 15.7 mph - - Rain Rain
11:20 AM 33.8 °F 21.9 °F 32.0 °F 93% 29.68 in 1.2 mi WNW 21.9 mph 33.4 mph N/A Rain , Snow , Thunderstorm Thunderstorms and Snow
11:50 AM 33.8 °F 27.0 °F 33.8 °F 100% 29.62 in 6.2 mi SW 8.1 mph - N/A   Mostly Cloudy
12:00 PM 35 °F - 34 °F 94% 29.65 in 44 mi SSW 6.7 mph - - Snow Snow
12:20 PM 37.4 °F 32.1 °F 35.6 °F 93% 29.62 in 6.2 mi SW 6.9 mph - N/A   Scattered Clouds
12:50 PM 39.2 °F 33.0 °F 35.6 °F 87% 29.62 in 6.2 mi SW 9.2 mph - N/A   Mostly Cloudy
1:00 PM 38 °F - 36 °F 87% 29.65 in 44 mi SSW 8.9 mph - -   Clear
1:20 PM 39.2 °F 33.6 °F 33.8 °F 81% 29.65 in 6.2 mi WSW 8.1 mph - N/A   Mostly Cloudy
1:50 PM 39.2 °F 33.6 °F 32.0 °F 75% 29.62 in 6.2 mi SW 8.1 mph - N/A   Mostly Cloudy
2:00 PM 39 °F - 34 °F 75% 29.63 in 44 mi SSW 8.9 mph - -  
2:20 PM 39.2 °F 32.5 °F 32.0 °F 75% 29.62 in 6.2 mi SW 10.4 mph - N/A   Mostly Cloudy
2:50 PM 39.2 °F 32.5 °F 30.2 °F 70% 29.59 in 6.2 mi SW 10.4 mph - N/A   Mostly Cloudy
3:00 PM 40 °F - 33 °F 66% 29.61 in 44 mi SSW 13.4 mph - -  
3:20 PM 39.2 °F 32.5 °F 30.2 °F 70% 29.59 in 6.2 mi SW 10.4 mph - N/A   Mostly Cloudy
3:50 PM 39.2 °F 33.6 °F 32.0 °F 75% 29.59 in 6.2 mi SW 8.1 mph - N/A   Mostly Cloudy
4:00 PM 40 °F - 32 °F 63% 29.60 in 44 mi SW 11.2 mph - -  
4:20 PM 39.2 °F 33.6 °F 30.2 °F 70% 29.56 in 6.2 mi WSW 8.1 mph - N/A   Mostly Cloudy
4:50 PM 39.2 °F 33.6 °F 30.2 °F 70% 29.56 in 6.2 mi SW 8.1 mph - N/A   Scattered Clouds
5:00 PM 39 °F - 31 °F 63% 29.59 in 44 mi SSW 8.9 mph - -  
5:20 PM 39.2 °F 35.0 °F 32.0 °F 75% 29.56 in 6.2 mi SW 5.8 mph - N/A   Scattered Clouds
5:50 PM 39.2 °F 34.2 °F 32.0 °F 75% 29.53 in 6.2 mi South 6.9 mph - N/A   Scattered Clouds
6:00 PM 37 °F - 32 °F 76% 29.56 in 37 mi South 8.9 mph - -   Overcast
6:20 PM 39.2 °F 34.2 °F 32.0 °F 75% 29.53 in 6.2 mi South 6.9 mph - N/A   Mostly Cloudy
6:50 PM 37.4 °F 30.8 °F 33.8 °F 87% 29.53 in 6.2 mi SSW 9.2 mph - N/A Rain Light Rain
7:00 PM 37 °F - 34 °F 84% 29.56 in 17 mi South 8.9 mph - - Rain Light Drizzle
7:20 PM 37.4 °F 30.3 °F 33.8 °F 87% 29.53 in 6.2 mi SSW 10.4 mph - N/A   Scattered Clouds
7:50 PM 37.4 °F 30.3 °F 32.0 °F 81% 29.53 in 3.7 mi SW 10.4 mph - N/A Rain , Thunderstorm Thunderstorms and Rain
8:00 PM 37 °F - 34 °F 84% 29.54 in 4 mi South 13.4 mph - - Rain Rain
8:20 PM 33.8 °F 27.0 °F 32.0 °F 93% 29.53 in 6.2 mi WSW 8.1 mph - N/A Rain Light Rain
9:00 PM 34 °F - 33 °F 96% 29.57 in 28 mi SW 4.5 mph - - Rain Light Drizzle
9:20 PM 33.8 °F 30.8 °F 32.0 °F 93% 29.53 in 6.2 mi Variable 3.5 mph - N/A   Mostly Cloudy
10:00 PM 33 °F - 33 °F 100% 29.57 in 19 mi South 6.7 mph - - Rain Drizzle
11:00 PM 33 °F - 32 °F 95% 29.59 in 25 mi SSW 4.5 mph - -